Weather reports worldwide

Advertisment
Fair Isle, United Kingdom (3008): temperature & dewpoint: 16.06.2018 19:00:00 - 22.06.2018 19:00:00 (BST)Fair Isle, United Kingdom (3008): temperature -20cm & temperature -100cm: 16.06.2018 19:00:00 - 22.06.2018 19:00:00 (BST)Fair Isle, United Kingdom (3008): wind speed & gusts: 16.06.2018 19:00:00 - 22.06.2018 19:00:00 (BST)Fair Isle, United Kingdom (3008): wind direction: 16.06.2018 19:00:00 - 22.06.2018 19:00:00 (BST)Fair Isle, United Kingdom (3008): reduced air pressure: 16.06.2018 19:00:00 - 22.06.2018 19:00:00 (BST)Fair Isle, United Kingdom (3008): visibility: 16.06.2018 19:00:00 - 22.06.2018 19:00:00 (BST)Fair Isle, United Kingdom (3008): precipitation: 16.06.2018 19:00:00 - 22.06.2018 19:00:00 (BST)
Date & Time tt [°C] td [°C] tt -20cm [°C] tt -100cm [°C] ff [km/h] ff [kn] fx [km/h] fx [kn] dd ppp [hPa] vv [km] rr [mm]
22.06.2018 19:00:00 10,6 8,8 - - 26 14 52 28 W 1024,9 10 0,0
22.06.2018 18:00:00 10,3 9,1 - - 28 15 46 25 W 1025,0 11 0,0
22.06.2018 17:00:00 10,9 9,2 - - 26 14 46 25 W 1025,5 11 0,0
22.06.2018 16:00:00 10,6 8,6 - - 34 18 48 26 W 1025,5 13 0,0
22.06.2018 15:00:00 10,5 8,9 - - 34 18 48 26 W 1025,8 12 0,0
22.06.2018 14:00:00 10,0 9,2 - - 28 15 - - WNW 1026,0 12 0,0
22.06.2018 13:00:00 9,5 9,3 - - 31 17 48 26 W 1026,2 3,1 0,2
22.06.2018 12:00:00 9,7 9,5 - - 28 15 46 25 WNW 1026,1 10 0,4
22.06.2018 11:00:00 9,8 9,7 - - 26 14 - - WNW 1026,1 7 0,2
22.06.2018 10:00:00 9,9 9,7 12,2 11,0 29 16 48 26 W 1025,9 8 0,0
22.06.2018 09:00:00 10,0 9,2 - - 22 12 - - W 1026,2 12 0,0
22.06.2018 08:00:00 10,0 7,9 - - 31 17 48 26 WNW 1026,0 17 0,0
22.06.2018 07:00:00 9,4 7,6 - - 29 16 - - WNW - 15 0,0
22.06.2018 06:00:00 9,1 7,3 - - 29 16 48 26 WNW - - 0,0
22.06.2018 05:00:00 9,1 7,3 - - 31 17 52 28 WNW 1026,2 14 0,0
22.06.2018 04:00:00 9,0 7,3 - - 31 17 52 28 WNW 1026,1 12 0,0
22.06.2018 03:00:00 9,1 5,1 - - 28 15 46 25 NW 1025,7 16 0,0
22.06.2018 02:00:00 9,1 5,0 - - 26 14 - - NW 1025,4 15 0,0
22.06.2018 01:00:00 9,0 5,0 - - 22 12 52 28 NW 1025,5 15 0,0
22.06.2018 00:00:00 9,2 5,7 - - 29 16 55 30 NW 1025,0 13 0,0
21.06.2018 23:00:00 9,1 5,3 - - 31 17 61 33 NNW 1025,0 13 0,0
21.06.2018 22:00:00 9,1 5,7 - - 37 20 63 34 NW 1024,3 12 0,0
21.06.2018 21:00:00 9,3 6,1 - - 37 20 63 34 NW 1023,5 10 0,0
21.06.2018 20:00:00 10,0 6,4 - - 31 17 59 32 NW 1023,1 40 0,0
21.06.2018 19:00:00 9,5 5,8 - - 31 17 61 33 NW 1022,6 11 0,0
21.06.2018 18:00:00 9,9 5,7 - - 37 20 63 34 NW 1021,6 12 0,0
21.06.2018 17:00:00 10,2 5,7 - - 34 18 59 32 NW 1021,1 12 0,0
21.06.2018 16:00:00 10,1 7,0 - - 35 19 61 33 WNW 1020,7 11 0,0
21.06.2018 15:00:00 9,2 7,3 - - 31 17 61 33 NW 1020,1 10 0,0
21.06.2018 14:00:00 9,1 7,3 - - 37 20 68 37 NW 1019,2 10 0,0
21.06.2018 13:00:00 9,3 7,6 - - 35 19 65 35 NW 1018,6 7 0,2
21.06.2018 12:00:00 8,2 7,0 - - 31 17 63 34 NW 1017,9 8 0,2
21.06.2018 11:00:00 8,4 6,5 - - 31 17 67 36 NW 1017,5 7 0,0
21.06.2018 10:00:00 8,2 6,9 12,7 11,0 29 16 59 32 NW 1016,9 7 0,2
21.06.2018 09:00:00 8,4 7,2 - - 26 14 57 31 NW 1016,6 9 0,2
21.06.2018 08:00:00 8,1 6,4 - - 31 17 61 33 WNW 1016,0 14 0,0
21.06.2018 07:00:00 9,1 5,8 - - 37 20 55 30 WNW - 20 0,0
21.06.2018 06:00:00 8,8 7,0 - - 28 15 46 25 WNW - - 0,0
21.06.2018 05:00:00 8,9 5,8 - - 28 15 48 26 WNW 1015,1 22 0,0
21.06.2018 04:00:00 8,6 5,5 - - 24 13 46 25 NW 1015,1 27 0,2
21.06.2018 03:00:00 8,7 5,8 - - 22 12 - - WNW 1014,9 30 0,0
21.06.2018 02:00:00 8,1 4,7 - - 21 11 - - WNW 1014,5 40 0,0
21.06.2018 01:00:00 8,3 6,3 - - 16 9 - - W 1014,3 35 0,0
21.06.2018 00:00:00 8,4 5,2 - - 13 7 - - WNW 1014,0 45 0,0
20.06.2018 23:00:00 8,9 6,4 - - 15 8 - - WNW 1013,8 40 0,0
20.06.2018 22:00:00 9,4 6,5 - - 18 10 - - WNW 1013,5 45 0,0
20.06.2018 21:00:00 9,7 6,2 - - 21 11 - - W 1013,2 30 0,0
20.06.2018 20:00:00 9,9 6,6 - - 16 9 - - W 1013,2 30 0,0
20.06.2018 19:00:00 10,1 7,6 - - 18 10 - - W 1013,4 26 0,0
20.06.2018 18:00:00 11,0 6,5 - - 18 10 - - W 1013,6 35 0,0
20.06.2018 17:00:00 11,4 7,5 - - 21 11 - - W 1013,7 22 0,0
20.06.2018 16:00:00 11,0 6,3 - - 16 9 - - W 1013,5 30 0,0
20.06.2018 15:00:00 11,8 7,9 - - 18 10 - - W 1013,4 26 0,0
20.06.2018 14:00:00 11,2 7,9 - - 18 10 - - W 1013,2 22 0,0
20.06.2018 13:00:00 11,5 8,7 - - 16 9 - - W 1013,0 17 0,0
20.06.2018 12:00:00 11,9 9,6 - - 13 7 - - WSW 1013,0 29 0,0
20.06.2018 11:00:00 11,2 8,8 - - 13 7 - - WSW 1013,1 15 0,0
20.06.2018 10:00:00 10,5 8,0 12,5 11,0 9 5 - - W 1012,3 18 0,0
20.06.2018 09:00:00 10,3 7,6 - - 8 4 - - W 1012,4 14 0,0
20.06.2018 08:00:00 9,7 7,0 - - 9 5 - - WNW 1012,1 21 0,0
20.06.2018 07:00:00 9,7 8,0 - - 9 5 - - WNW - 13 0,0
20.06.2018 06:00:00 9,4 8,2 - - 8 4 - - WNW - - 0,0
20.06.2018 05:00:00 8,8 8,3 - - 8 4 - - SW 1012,1 6 0,0
20.06.2018 04:00:00 9,0 8,5 - - 8 4 - - SSW 1012,3 7 0,0
20.06.2018 03:00:00 8,9 8,0 - - 9 5 - - SW 1013,0 6 0,0
20.06.2018 02:00:00 8,8 8,0 - - 11 6 - - SW 1013,3 5 0,0
20.06.2018 01:00:00 8,8 7,7 - - 13 7 - - SW 1013,7 5 0,0
20.06.2018 00:00:00 9,5 7,5 - - 21 11 - - W 1013,7 10 0,0
19.06.2018 23:00:00 9,6 7,8 - - 28 15 - - WSW 1013,5 9 0,0
19.06.2018 22:00:00 9,7 7,5 - - 28 15 - - WSW 1013,5 10 0,0
19.06.2018 21:00:00 9,8 7,5 - - 29 16 - - WSW 1013,5 11 0,0
19.06.2018 20:00:00 10,4 7,5 - - 29 16 - - WSW 1013,4 12 0,0
19.06.2018 19:00:00 11,0 6,1 - - 37 20 54 29 WSW 1013,4 11 0,0
19.06.2018 18:00:00 11,3 7,3 - - 37 20 50 27 WSW 1013,2 11 0,0
19.06.2018 17:00:00 11,7 8,0 - - 39 21 52 28 WSW 1013,0 10 0,0
19.06.2018 16:00:00 11,7 8,1 - - 37 20 52 28 WSW 1012,7 9 0,0
19.06.2018 15:00:00 11,5 7,6 - - 42 23 55 30 WSW 1012,2 8 0,0
19.06.2018 14:00:00 11,7 7,4 - - 41 22 59 32 WSW 1011,5 9 0,2
19.06.2018 13:00:00 11,3 7,2 - - 35 19 54 29 WSW 1010,9 5 0,0
19.06.2018 12:00:00 11,4 6,7 - - 39 21 59 32 W 1009,9 10 0,0
19.06.2018 11:00:00 11,2 7,1 - - 41 22 59 32 WSW 1009,2 9 0,0
19.06.2018 10:00:00 10,4 7,1 12,5 10,9 35 19 55 30 W 1008,4 7 0,0
19.06.2018 09:00:00 10,5 5,9 - - 41 22 65 35 WSW 1007,6 9 0,0
19.06.2018 08:00:00 10,6 8,0 - - 41 22 63 34 WSW 1006,5 8 0,0
19.06.2018 07:00:00 10,1 7,0 - - 46 25 74 40 WSW - 12 0,0
19.06.2018 06:00:00 9,9 7,8 - - 52 28 76 41 WSW - - 0,0
19.06.2018 05:00:00 9,8 8,0 - - 54 29 76 41 WSW - - 0,0
19.06.2018 04:00:00 9,8 8,0 - - 52 28 80 43 WSW - - 0,0
19.06.2018 03:00:00 9,8 7,7 - - 57 31 83 45 WSW - - 0,0
19.06.2018 02:00:00 9,9 7,2 - - 55 30 80 43 WSW 1002,1 6 0,0
19.06.2018 01:00:00 9,9 7,0 - - 61 33 85 46 WSW 1001,9 9 0,0
19.06.2018 00:00:00 9,8 7,1 - - 52 28 80 43 WSW 1002,3 9 0,0
18.06.2018 23:00:00 9,8 7,0 - - 54 29 70 38 SW 1002,2 9 0,0
18.06.2018 22:00:00 10,1 6,4 - - 55 30 81 44 SW 1002,6 8 0,0
18.06.2018 21:00:00 10,6 6,7 - - 46 25 65 35 SW 1002,5 13 0,0
18.06.2018 20:00:00 10,7 7,5 - - 39 21 68 37 SW 1002,5 12 0,0
18.06.2018 19:00:00 10,1 7,7 - - 42 23 68 37 WSW 1002,5 15 0,0
18.06.2018 18:00:00 11,8 7,6 - - 44 24 65 35 SW 1002,4 12 0,0
18.06.2018 17:00:00 12,3 9,2 - - 29 16 50 27 SSW 1003,2 9 0,0
18.06.2018 16:00:00 10,9 7,6 - - 31 17 63 34 SW 1003,7 11 0,0
18.06.2018 15:00:00 11,1 8,3 - - 39 21 68 37 SW 1003,9 11 0,2
18.06.2018 14:00:00 11,3 7,5 - - 34 18 48 26 SW 1003,8 10 0,0
18.06.2018 13:00:00 11,6 7,3 - - 42 23 65 35 SW 1004,0 11 0,0
18.06.2018 12:00:00 12,1 7,6 - - 41 22 57 31 SW 1003,5 14 0,0
18.06.2018 11:00:00 11,6 7,8 - - 46 25 67 36 SW 1003,6 15 0,0
18.06.2018 10:00:00 11,3 7,9 12,9 10,7 31 17 48 26 SW 1003,4 13 0,0
18.06.2018 09:00:00 10,8 7,5 - - 39 21 59 32 SW 1002,9 12 0,0
18.06.2018 08:00:00 11,7 7,9 - - 42 23 68 37 SW 1003,0 13 0,0
18.06.2018 07:00:00 10,7 8,4 - - 42 23 67 36 SW - 15 0,0
18.06.2018 06:00:00 10,6 8,8 - - 34 18 52 28 WSW - - 0,0
18.06.2018 05:00:00 10,5 9,3 - - 28 15 52 28 WSW - - 0,0
18.06.2018 04:00:00 10,9 10,1 - - 34 18 50 27 WSW - - 0,0
18.06.2018 03:00:00 11,0 10,9 - - 26 14 - - SW - - 0,4
18.06.2018 02:00:00 10,6 10,4 - - 22 12 - - SSW 1001,9 6 0,0
18.06.2018 01:00:00 10,5 10,1 - - 21 11 - - SSW 1002,2 13 0,2
18.06.2018 00:00:00 10,6 10,3 - - 21 11 - - SSE 1002,5 11 0,0
17.06.2018 23:00:00 10,2 10,1 - - 18 10 - - SSE 1003,3 9 0,0
17.06.2018 22:00:00 10,2 9,9 - - 22 12 - - SSE 1004,1 11 0,0
17.06.2018 21:00:00 10,3 9,6 - - 18 10 - - SSE 1005,1 25 0,0
17.06.2018 20:00:00 10,7 10,0 - - 13 7 - - SSE 1005,4 18 0,0
17.06.2018 19:00:00 11,7 10,8 - - 16 9 - - S 1005,8 30 0,0
17.06.2018 18:00:00 11,3 9,9 - - 15 8 - - SSE 1006,1 15 0,0
17.06.2018 17:00:00 12,0 10,2 - - 18 10 - - S 1006,4 16 0,0
17.06.2018 16:00:00 12,5 10,8 - - 16 9 - - S 1006,7 27 0,0
17.06.2018 15:00:00 12,2 10,3 - - 16 9 - - SSW 1006,8 21 0,0
17.06.2018 14:00:00 13,0 10,9 - - 9 5 - - WSW 1006,8 23 0,0
17.06.2018 13:00:00 10,9 10,5 - - 11 6 - - W 1006,8 11 0,0
17.06.2018 12:00:00 10,9 10,8 - - 13 7 - - W 1006,7 1,7 0,0
17.06.2018 11:00:00 10,3 10,2 - - 11 6 - - W 1006,7 0,3 0,0
17.06.2018 10:00:00 10,6 10,1 12,7 10,7 9 5 - - W 1006,6 7 0,0
17.06.2018 09:00:00 11,1 10,9 - - 5 3 - - ESE 1006,5 11 0,0
17.06.2018 08:00:00 10,9 10,9 - - 8 4 - - E 1006,3 8 0,0
17.06.2018 07:00:00 10,5 10,5 - - 9 5 - - E - 0,9 0,0
17.06.2018 06:00:00 10,3 10,3 - - 9 5 - - E - - 0,2
17.06.2018 05:00:00 10,2 10,2 - - 11 6 - - NE - - 0,0
17.06.2018 04:00:00 10,3 10,1 - - 13 7 - - NE - - 0,0
17.06.2018 03:00:00 10,1 9,8 - - 8 4 - - NNE - - 0,0
17.06.2018 02:00:00 9,8 9,6 - - 8 4 - - NE 1007,2 9 0,0
17.06.2018 01:00:00 10,6 10,6 - - 15 8 - - E 1007,4 13 0,0
17.06.2018 00:00:00 10,7 10,6 - - 13 7 - - ESE 1007,9 8 0,0
16.06.2018 23:00:00 10,3 10,2 - - 11 6 - - ESE 1008,0 9 0,0
16.06.2018 22:00:00 10,4 10,3 - - 15 8 - - ESE 1008,1 6 0,0
16.06.2018 21:00:00 10,5 10,2 - - 16 9 - - ESE 1008,4 7 0,0
16.06.2018 20:00:00 10,7 9,9 - - 15 8 - - ESE 1008,4 10 0,0
16.06.2018 19:00:00 11,0 10,0 - - 15 8 - - ESE 1008,6 12 0,0

tt = temperature
td = dewpoint
tt -20cm = temperature -20cm
tt -100cm = temperature -100cm
ff = wind speed
fx = gusts
dd = wind direction
ppp = reduced air pressure
vv = visibility
rr = precipitation

Next stations